FENGYUN 1C DEB *

Satellite information

Favourite Embed

Satellite Type and Status

DEBRISIN ORBIT

Key statistics

Satellite FENGYUN 1C DEB * at a glance.

Uptime

9659

Days in orbit

Revolutions

≈ 14.5

Per day

Orbit

SSO

Sun Synchronous Orbit

Inclination

99.0

Latest

Satellite identification and parameters

Extended collection of information and parameters for FENGYUN 1C DEB *.

Object identification

Identified? True

Debris? True

Object name: FENGYUN 1C DEB *

International designator: 1999-025FBB

Object number (NORAD): 47025

Object ID (CCSDS): 47025

Country: PEOPLES REPUBLIC OF CHINA (PRC)

Current information (Y/N): Y

RCS size: SMALL

Orbital parameters

Period: 99.645 minutes

Inclination: 99.0369 deg

SMA: 7119.742 km

Apoapsis: 769.338 km

Periapsis: 713.877 km

RAAN: 133.2228 deg

Eccentricy: 0.0038949

Argument of periapsis: 164.7885 deg

Mean anomaly: 13.6822 deg

Mean motion: 14.45128139 rev/day

Mean motion (dot): 0.00009543 rev/day2

B* drag term: 0.0027131 1/REarth

Two-line elements (TLE)

Creation date: Oct. 17, 2025, 7:56 p.m.

Reference frame: TEME

Reference center: EARTH

Epoch: Oct. 17, 2025, 7:46 a.m. UTC

TLE line 0: 0 FENGYUN 1C DEB *

TLE line 1: 1 47025U 99025FBB 25290.32426795 .00009543 00000-0 27131-2 0 9996

TLE line 2: 2 47025 99.0369 133.2228 0038949 164.7885 13.6822 14.45128139619263

Live tracking on map

Real-time ground track for satellite FENGYUN 1C DEB *.

In-orbit conjunctions

A list of the most updated potential collisions computed for object FENGYUN 1C DEB *.

Target Orbit TCA Probability of collision Miss distance Type
COSMOS 332 LEO 2025-09-17 21:41:24 0.0001690951 962.0 (m) PAYLOAD
SL-8 R/B LEO 2025-05-24 21:25:53 0.0001740194 630.0 (m) ROCKET BODY
IRIDIUM 920 LEO 2025-02-10 07:29:09 0.0009828628 203.0 (m) PAYLOAD
FEDSAT SSO 2024-11-25 00:05:34 0.0001477451 862.0 (m) PAYLOAD
SL-16 DEB LEO 2024-11-15 02:39:48 0.0001598799 169.0 (m) DEBRIS

Associated space launch

Chinese polar orbiting meteorological satellite

FENGYUN 1C DEB * was lifted into orbit during the mission ‘Long March 4B | Feng Yun 1C’, on board a Long March 4B space rocket.

The launch took place on May 10, 1999, 1:33 a.m. from Launch Complex 7.

For more information about the launch, click the button.

Launch to space Long March 4B | Feng Yun 1C
Long March 4B | Feng Yun 1C

Agency: N/A

Status: Launch Successful

Launch date: May 10, 1999, 1:33 a.m. UTC

Rocket: Long March 4B

Launch pad: Launch Complex 7

Location: Taiyuan Satellite Launch Center, People's Republic of China

...

Latest news about this satellite

There are no fresh news available about this satellite. Check back as we update our databases every day.


Newsletter sign-up

Weekly statistics, charts and insights to help you stay on top of the space industry.